sat.trackr.live / text

‹ back to catalog

STARLINK-5059

NORAD 53912 · 2022-119AC

PAYLOAD ACTIVE UNKNOWN

§ Identity

Operator
Country
US
Launch date
2022-09-24
Launch site
AFETR
Launch vehicle
Mass (kg)
RCS (m²)

Purposes: comms

External: N2YO · Heavens-Above · Gunter

§ Orbital elements

Epoch: 2026-05-24T19:45:16.292736Z

Period
95.44 min
Inclination
53.2149°
Eccentricity
0.0001406
Mean motion
15.08837365 rev/d
Perigee alt
538.8 km
Apogee alt
540.7 km
Semi-major
6,917.9 km
B*
2.1729e-5
RAAN
331.9852°
Arg perigee
88.3600°
Mean anomaly
271.7553°
Rev number
20,332

§ Raw data

STARLINK-50591 53912U 22119AC  26144.82310524  .00000058  00000+0  21729-4 0  99942 53912  53.2149 331.9852 0001406  88.3600 271.7553 15.08837365203329

JSON: /api/v1/satellites/53912 · /tle

For live sub-satellite position, see the globe view (requires WebGL).

§ Visibility from observer

Set your observer location to see the next 7 days of passes ≥ 10°. The values pass through the URL so the page stays shareable.

No JS? Fill the form by hand. The geolocation button needs JavaScript.